RH
12 18 20 30 38 36 22 11 12 9 1 2 2 4 5 5 5 4 4 4 4 4 5 4 4 4 5 6 6 4 6 6 7 7 8 7 6 5 6 6 6 7 7 6 5 5 6
15 13 15 21 26 17 18 12 13 2 1 2 3 5 6 6 5 3 3 3 4 5 5 6 7 7 6 6 6 7 8 8 9 10 11 11 12 11 11 10 9 10 11 10 8 7 7
21 20 21 19 24 22 12 14 3 1 2 4 5 6 6 6 5 4 4 4 3 3 5 5 6 10 8 11 8 8 9 10 12 14 15 15 14 14 17 16 16 15 12 12 12 12 12
32 29 30 30 24 9 11 11 0 2 5 6 6 6 6 5 3 4 4 4 4 4 4 4 5 6 7 11 12 12 12 12 13 14 15 16 17 19 20 21 26 18 25 62 24 17 17
29 27 26 28 14 8 12 2 0 2 5 6 6 5 4 4 4 4 5 6 6 5 5 5 5 5 6 7 7 9 11 12 12 13 13 14 15 19 22 21 38 72 39 27 26 21 20
24 19 20 17 9 10 9 0 0 1 4 6 7 7 7 7 7 6 6 6 6 7 7 6 6 7 5 6 7 8 7 9 11 12 13 14 14 14 16 18 25 30 29 25 24 24 26
16 14 12 10 10 8 7 1 0 1 1 2 4 8 8 10 9 8 8 5 5 6 6 7 5 5 6 6 7 7 8 9 11 14 15 16 16 19 19 22 26 27 25 22 22 24 26
12 9 8 9 9 7 4 1 0 0 1 1 2 3 4 4 6 6 5 8 8 7 6 6 6 4 4 6 8 8 8 9 11 14 16 17 20 23 24 26 27 27 24 25 28 23 21
6 6 8 9 8 6 4 2 2 1 0 1 2 2 3 5 6 6 5 4 7 8 7 5 5 4 4 5 8 11 10 10 12 13 16 17 19 22 24 26 30 28 29 27 26 26 19
7 7 6 6 6 6 6 6 5 4 2 2 1 2 2 2 3 5 5 5 5 5 5 5 4 4 6 7 13 15 15 12 12 15 18 18 20 22 23 24 25 27 26 27 28 29 28
9 8 9 9 9 8 7 6 6 4 5 6 5 3 3 2 3 3 3 3 3 3 4 6 6 11 11 14 20 20 21 15 14 16 19 21 22 22 22 23 25 24 24 25 26 27 29
9 10 10 10 10 9 8 6 5 4 11 12 10 7 8 8 7 7 7 7 6 5 5 8 16 23 24 24 26 25 23 21 17 19 19 20 21 21 21 21 25 24 23 24 22 27 31
9 9 10 11 13 11 7 7 5 5 6 13 16 18 11 8 10 10 11 12 14 12 17 22 26 28 28 31 35 33 28 25 25 22 21 20 13 19 23 24 22 24 25 24 26 34 33
10 8 9 11 12 10 9 10 6 5 6 12 19 28 20 13 12 14 16 17 18 19 20 22 22 23 23 23 25 36 41 29 26 24 25 21 21 16 23 24 26 30 34 35 35 34 34
13 11 11 11 12 10 8 8 7 6 7 11 20 34 27 24 18 14 17 19 17 18 20 19 19 19 19 24 30 32 34 34 28 26 25 21 20 20 28 32 32 37 36 38 38 40 37
15 14 15 13 11 10 10 9 8 7 7 13 20 28 33 30 31 30 28 23 18 15 15 18 20 31 39 34 42 42 35 36 30 29 20 14 20 30 31 34 33 36 37 38 40 41 45
16 16 15 14 12 11 10 10 9 8 6 10 15 18 28 38 45 52 53 57 59 55 54 54 48 42 40 41 46 44 40 34 30 21 19 22 22 28 32 36 37 39 44 49 50 59 59
11 15 15 14 13 12 11 13 11 9 8 9 13 17 25 34 43 52 47 54 51 60 54 48 41 38 38 42 44 40 38 36 31 31 31 32 33 32 38 40 43 47 57 61 62 55 55
12 14 14 14 13 12 12 14 13 10 9 10 12 16 20 27 39 44 50 51 59 57 55 50 45 49 52 53 48 46 42 46 40 39 40 38 33 33 42 44 35 37 50 57 62 63 50
16 15 14 14 13 13 13 15 14 12 12 12 12 18 18 21 28 35 45 53 53 58 62 59 56 54 59 60 58 54 51 42 50 44 41 37 42 42 50 45 44 43 48 62 69 57 63
18 17 16 14 15 15 15 15 14 12 12 12 13 16 16 18 19 21 32 43 52 55 61 66 69 68 65 61 60 57 55 54 53 50 58 61 53 53 63 54 54 54 53 74 77 76 71
18 18 18 18 18 18 16 16 14 13 12 13 14 16 18 19 19 20 24 26 27 36 49 46 54 51 54 53 48 51 58 60 56 54 55 54 47 48 48 52 56 51 68 66 64 66 67
22 20 19 19 19 19 17 16 15 14 13 15 16 18 20 21 23 25 25 27 28 28 28 30 33 38 41 43 43 41 41 42 41 44 46 49 54 52 43 52 52 52 63 60 54 69 77
18 19 20 20 19 18 17 15 15 16 17 16 18 17 19 22 25 28 28 29 28 30 33 35 38 40 38 39 39 39 40 43 48 54 59 62 65 62 58 55 50 59 76 77 76 73 88
16 15 15 14 15 16 15 14 13 13 14 14 14 15 16 25 45 76 78 45 34 68 58 36 41 40 45 52 52 55 60 63 66 62 62 64 66 66 65 61 50 54 77 81 81 78 90
57 40 19 14 14 14 13 12 12 13 13 12 12 12 17 34 54 71 82 71 72 74 84 65 42 45 58 63 66 61 57 57 54 57 60 65 66 70 70 62 47 60 79 74 78 70 100
92 84 75 43 22 12 11 10 10 10 8 10 11 17 27 36 59 84 96 93 93 91 93 86 65 48 45 51 68 77 73 75 72 72 74 73 78 76 78 72 54 73 70 82 93 100 91
98 94 88 81 78 41 29 21 31 29 16 19 19 39 52 59 74 89 98 100 98 92 90 70 58 55 55 51 55 71 65 77 71 74 79 85 86 92 78 83 69 86 95 100 100 90 99
100 100 100 100 100 71 50 48 46 40 50 43 53 64 73 78 86 95 100 100 95 99 86 72 70 79 82 86 80 73 73 66 69 56 75 80 100 89 93 96 86 85 97 80 100 100 93
Wind_Speed
8 6 9 13 12 11 5 10 14 18 31 39 37 32 32 31 27 27 26 25 25 24 22 20 16 14 17 20 20 18 20 20 19 20 23 21 21 20 16 15 16 14 13 10 9 8 8
7 5 9 11 11 7 8 14 17 27 35 37 36 32 32 29 26 25 25 25 23 22 21 18 16 13 12 19 11 13 16 16 17 19 17 16 16 15 14 13 12 10 8 7 5 5 6
8 9 12 13 11 10 13 18 22 33 37 36 32 30 29 25 21 19 18 20 21 19 18 17 15 13 15 17 13 14 14 14 15 16 15 14 13 10 11 10 10 8 5 4 6 7 8
13 14 13 12 11 14 19 19 28 34 35 35 31 28 25 21 18 16 15 14 16 16 16 16 15 13 15 12 11 11 10 11 11 10 10 10 11 10 12 10 7 9 10 10 15 13 10
13 11 9 9 12 17 19 21 30 33 34 32 29 26 23 18 13 10 9 9 8 10 12 14 13 11 11 9 8 6 6 7 7 7 8 9 7 8 5 10 13 14 13 11 12 14 12
12 12 13 16 18 20 20 23 28 30 31 29 26 24 20 15 11 8 7 7 5 4 5 7 10 10 10 8 7 6 5 4 5 6 7 5 7 5 14 9 8 9 10 12 12 13 15
15 16 19 19 19 19 19 21 25 25 27 26 24 23 20 17 13 11 10 7 5 2 2 1 5 8 11 10 8 7 7 4 4 5 7 7 7 9 7 6 5 5 6 6 8 10 13
17 17 19 19 19 19 19 19 21 22 23 23 21 21 20 20 18 16 13 12 10 6 6 7 7 10 13 14 11 10 8 7 5 7 8 7 6 7 8 8 9 7 6 6 9 11 11
18 17 17 17 18 18 18 17 17 16 19 23 22 21 21 20 19 18 17 15 15 13 11 11 12 15 16 15 13 12 10 8 8 7 8 11 10 9 10 11 10 12 9 8 9 11 14
19 19 17 16 15 13 13 11 10 12 14 16 20 23 22 23 22 21 20 19 18 17 18 16 18 20 20 15 13 12 11 10 9 10 11 12 12 12 10 12 12 15 14 13 12 15 15
20 19 17 15 11 9 7 6 4 7 14 18 21 22 23 24 25 24 24 24 23 21 23 21 19 17 14 14 13 13 12 11 12 13 15 14 16 16 14 12 15 15 17 17 16 16 16
21 20 17 14 10 7 5 3 3 5 8 8 8 15 21 21 22 23 23 23 23 22 22 21 15 14 15 17 18 16 15 14 15 16 17 20 19 19 16 16 14 16 16 20 21 21 19
23 21 18 14 10 7 5 3 4 6 9 10 7 7 9 16 17 18 18 18 17 19 18 15 15 16 18 18 20 21 21 20 19 20 19 24 22 16 19 17 17 16 20 21 22 23 23
24 21 19 16 13 10 7 5 5 6 8 10 7 7 9 10 12 15 17 17 18 18 18 19 20 21 22 22 22 24 24 25 22 24 24 22 29 22 16 18 19 19 24 26 28 29 28
25 23 21 19 17 13 10 7 6 6 6 9 7 6 8 9 12 15 18 21 22 24 24 25 25 24 24 24 26 26 24 26 25 24 25 23 24 22 17 21 22 24 26 29 33 34 38
26 25 23 21 19 16 12 9 8 7 7 9 8 7 6 8 8 10 14 18 19 21 24 24 22 19 21 20 22 21 24 20 24 23 24 22 18 21 24 24 24 25 29 32 37 40 44
30 27 25 23 21 18 15 12 10 9 10 11 10 9 9 9 10 9 12 13 14 14 14 15 15 15 17 17 17 18 18 17 22 21 20 19 20 22 27 28 29 31 31 35 38 39 45
33 31 28 25 23 20 18 15 14 13 12 12 12 10 10 12 13 13 11 12 12 11 12 11 12 13 16 17 17 17 18 18 18 18 19 19 22 23 27 30 33 33 32 34 41 44 44
33 32 31 29 26 23 20 17 15 14 13 14 13 12 12 12 14 15 14 14 15 14 15 15 15 16 17 18 18 18 20 19 21 23 25 26 30 31 30 39 40 37 32 34 41 49 50
35 33 32 31 29 26 23 20 17 16 16 15 15 14 14 14 14 15 15 16 16 17 18 19 20 22 22 22 21 22 23 23 25 28 30 32 30 34 34 36 43 43 37 32 37 46 50
37 36 34 32 30 28 26 23 20 19 18 17 16 15 16 17 17 17 17 18 20 21 21 22 24 24 24 24 25 26 28 28 29 31 33 35 33 37 35 38 44 47 44 39 38 40 50
41 40 38 35 33 30 28 26 24 22 20 19 17 17 17 17 19 21 21 21 22 21 24 26 29 29 29 30 30 30 31 33 32 35 39 43 41 43 42 37 46 51 45 48 51 51 53
43 41 40 38 36 34 33 31 30 26 25 23 22 21 20 20 20 23 24 25 26 26 26 29 29 30 30 30 33 33 34 34 35 37 38 42 45 49 53 48 51 51 54 50 55 56 54
45 44 42 42 40 39 38 36 34 32 31 28 27 27 26 24 25 26 28 30 30 29 31 33 32 33 32 34 33 34 35 37 38 39 42 46 47 51 57 56 59 59 49 50 53 55 56
47 48 46 45 43 42 41 40 38 37 35 33 34 32 32 29 32 34 38 37 33 33 35 35 38 37 36 37 38 38 36 39 39 42 41 43 49 53 55 56 60 59 50 53 58 59 58
50 47 47 48 48 45 44 43 43 41 40 38 38 39 36 36 35 39 40 39 39 42 41 39 39 39 41 42 43 47 47 47 49 47 46 49 50 52 50 52 55 51 50 56 56 59 53
59 55 51 50 48 50 50 48 47 47 46 44 41 42 42 43 40 42 43 45 42 43 43 42 44 43 46 47 47 48 52 53 55 54 54 51 51 49 48 51 55 51 55 58 49 44 56
64 64 62 60 53 53 53 52 51 51 50 47 44 47 50 53 48 54 49 47 43 45 44 43 47 46 48 51 55 56 54 53 52 52 50 51 52 51 55 57 57 56 54 52 55 59 63
53 56 55 56 58 57 57 56 55 52 53 54 53 52 55 58 57 52 47 40 42 41 43 46 50 52 55 55 52 55 56 56 53 53 47 53 51 54 53 57 49 50 55 57 54 58 63
Wind_Direction
180 174 147 149 172 179 185 147 139 143 140 139 139 133 132 134 123 112 104 98 94 92 90 89 86 85 83 79 73 78 79 79 77 80 61 66 69 74 69 67 72 66 65 66 58 52 49
181 168 138 156 176 167 149 138 139 142 140 142 142 139 138 134 119 111 105 99 94 90 91 93 86 80 88 81 66 69 65 63 60 60 60 63 63 59 64 56 56 52 41 47 51 33 31
146 151 144 137 138 150 144 141 143 144 142 142 140 142 140 133 124 117 109 101 95 90 88 87 86 83 84 71 67 58 56 57 51 51 50 48 49 47 50 50 46 43 52 59 30 18 356
140 143 137 135 136 139 141 143 146 145 144 145 145 145 144 142 136 127 119 113 104 91 81 74 73 65 75 80 74 72 64 62 59 52 49 48 42 41 42 34 56 45 19 28 334 342 344
141 145 143 137 138 142 143 146 149 152 153 155 154 154 155 152 141 136 127 116 99 90 75 60 58 52 59 65 65 65 73 58 53 46 43 36 31 43 51 37 37 350 335 325 323 328 328
154 163 156 150 146 144 146 152 155 160 164 165 169 169 172 174 174 170 164 154 128 96 79 55 34 26 22 24 27 26 22 41 27 19 17 10 20 33 29 5 1 323 334 330 330 320 314
142 138 137 138 141 147 153 158 161 163 172 175 182 184 187 191 196 206 213 208 187 217 272 337 357 358 351 353 350 345 340 346 358 356 357 357 355 2 347 343 329 310 320 316 321 320 312
136 132 133 135 141 149 157 164 168 176 182 189 194 196 202 206 210 214 224 226 227 245 259 281 298 321 326 327 326 322 321 319 327 334 337 335 332 343 332 327 321 307 305 314 320 323 317
142 137 132 130 133 143 155 167 174 181 195 204 207 211 214 215 221 226 232 235 240 245 252 271 286 303 306 306 306 310 306 308 313 315 320 328 321 325 321 318 312 299 297 297 319 317 320
154 143 136 130 127 128 136 152 173 194 205 212 220 225 227 229 230 234 238 243 247 251 257 267 280 289 289 288 294 299 302 302 308 310 315 323 314 308 306 306 304 294 289 288 301 313 309
168 160 153 147 142 140 146 153 183 222 224 227 230 232 233 234 237 240 245 248 250 253 259 269 280 280 273 277 286 294 301 295 303 308 309 317 319 311 305 310 311 300 296 296 296 293 303
180 176 170 165 161 160 171 189 218 246 226 218 232 240 238 239 242 246 250 254 254 254 257 266 269 270 276 281 287 290 290 289 290 297 303 306 312 313 306 305 307 308 306 306 310 306 309
189 186 184 183 184 187 197 207 227 234 227 225 239 248 239 233 238 246 250 253 249 246 248 253 267 276 280 284 282 284 284 283 288 293 294 303 303 311 302 302 305 303 303 302 302 303 312
197 195 194 197 203 209 218 230 236 231 234 216 231 247 242 244 245 247 246 247 244 245 252 264 273 278 282 284 284 282 281 280 283 291 293 301 307 314 303 305 307 310 311 314 310 306 304
203 203 205 207 211 217 223 233 237 233 234 221 228 253 244 245 251 253 254 252 252 255 261 267 273 280 281 279 283 281 277 279 282 287 290 300 301 304 308 308 309 313 315 314 312 308 307
208 208 211 214 215 216 224 232 234 236 237 222 231 248 252 246 253 259 261 263 264 265 267 273 274 273 276 288 284 280 278 279 281 286 291 297 298 305 306 306 304 306 308 310 310 310 309
211 215 216 215 215 215 222 236 244 243 237 226 229 242 252 250 254 261 275 272 271 274 275 277 276 276 284 293 290 287 283 281 284 286 287 297 302 306 306 310 311 312 313 313 310 311 308
212 215 217 218 217 219 224 236 247 249 240 234 236 246 251 254 256 256 276 276 276 278 273 271 275 281 292 301 298 296 295 295 291 289 292 296 299 302 302 304 304 304 311 313 309 309 305
213 212 213 216 218 221 224 235 243 245 241 239 239 247 256 260 261 265 266 272 273 272 270 271 274 282 290 296 297 296 292 290 291 292 294 295 296 298 299 302 298 300 305 308 305 305 307
211 213 214 215 217 220 222 231 238 245 243 241 244 249 259 269 273 271 267 268 272 275 276 276 277 280 287 293 294 295 294 294 296 298 298 296 299 298 301 300 300 302 303 303 299 300 302
212 214 215 216 221 221 224 229 235 240 243 248 251 254 258 271 276 278 273 268 268 270 274 276 276 279 281 283 286 289 291 295 299 299 301 301 304 300 304 306 302 302 308 307 301 297 293
217 216 217 219 221 223 226 230 237 240 243 250 256 260 265 272 279 282 283 285 281 276 273 273 276 279 281 284 286 288 291 294 297 298 301 299 301 298 299 299 297 298 308 310 307 304 303
224 223 221 222 225 226 230 232 238 240 246 247 251 253 261 270 276 284 288 288 289 291 288 285 284 284 286 290 290 294 295 296 298 298 298 300 305 304 302 304 299 304 308 312 308 311 312
227 227 226 226 228 229 231 235 237 241 246 248 251 257 261 266 274 279 282 283 284 287 289 286 286 285 288 287 289 291 294 295 297 298 300 303 304 304 304 306 303 306 321 315 307 311 316
232 232 231 230 232 233 234 238 239 241 244 250 254 258 262 263 277 281 284 279 278 287 287 284 286 287 288 289 289 288 287 290 292 291 295 298 303 305 305 304 303 306 321 315 312 311 310
234 236 237 239 236 235 238 240 245 248 251 253 256 261 258 266 274 282 282 278 280 284 288 280 282 285 287 292 294 296 297 300 300 302 304 303 306 306 307 304 303 315 312 306 311 313 317
237 236 238 242 244 244 244 245 248 251 254 254 256 260 263 267 274 276 281 279 282 282 279 283 280 279 285 289 294 297 297 298 303 306 305 307 306 306 306 306 308 320 314 316 321 309 300
241 240 238 238 242 245 247 246 250 253 253 258 259 265 271 270 270 280 280 280 275 279 278 276 278 283 284 288 292 296 295 297 299 301 306 304 305 309 311 311 315 314 311 306 301 301 301
243 244 246 248 242 242 245 248 250 252 258 257 259 262 266 271 275 277 273 271 276 276 279 277 280 286 289 291 296 297 297 299 302 303 305 301 301 307 312 304 311 307 302 304 299 298 299